EW1433 Weather Reports


time (UTC)temp
C
wind
direction
speed
KPH
gust
KPH
rain 1hr
cm
rain 24hr
cm
rain mn
cm
humidity
%
barometer
mb
20260505203602 -17 45 0.0 0.0 0.00 0.00 0.00 1015.8
20260505203101 15 45 0.0 0.0 0.00 0.00 0.00 70 1015.8
20260505202558 15 307 0.0 0.0 0.00 0.00 0.00 70 1015.8
20260505202058 15 39 0.0 0.0 0.00 0.00 0.00 71 1015.7
20260505201549 15 202 0.0 0.0 0.00 0.00 0.00 70 1015.9
20260505201333 15 202 0.0 0.0 0.00 0.00 0.00 71 1015.9
20260505200534 15 217 0.0 0.0 0.00 0.00 0.00 71 1016.0
20260505200308 15 217 0.0 0.0 0.00 0.00 0.00 67 1016.1
20260505195531 -17 321 0.0 0.0 0.00 0.00 0.00 1016.1
20260505195034 -17 321 0.0 0.0 0.00 0.00 0.00 1016.0
20260505194531 -17 321 0.0 0.0 0.00 0.00 0.00 1016.1
20260505194032 -17 329 0.0 0.0 0.00 0.00 0.00 1016.1
20260505193910 15 172 0.0 0.0 0.00 0.00 0.00 67 1016.2
20260505193608 15 90 0.0 0.0 0.00 0.00 0.00 67 1016.2
20260505192804 15 172 0.0 0.0 0.00 0.00 0.00 67 1016.2
20260505192029 15 172 0.0 0.0 0.00 0.00 0.00 67 1016.0
20260505191531 15 172 0.0 0.0 0.00 0.00 0.00 67 1016.0
20260505191028 15 172 0.0 0.0 0.00 0.00 0.00 67 1016.0
20260505190530 15 281 0.0 0.0 0.00 0.00 0.00 69 1016.0
20260505190020 15 261 0.0 0.0 0.00 0.00 0.00 69 1016.0
20260505185812 15 316 0.0 0.0 0.00 0.00 0.00 68 1016.0
20260505185020 15 316 0.0 0.0 0.00 0.00 0.00 68 1016.0
20260505184520 15 24 0.0 0.0 0.00 0.00 0.00 68 1016.0
20260505184019 15 313 0.0 0.0 0.00 0.00 0.00 69 1016.0
20260505183520 15 312 0.0 0.0 0.00 0.00 0.00 69 1015.9
20260505183020 14 312 0.0 0.0 0.00 0.00 0.00 68 1016.0
20260505182521 14 0.0 0.0 0.00 0.00 0.00 68 1016.0
20260505182020 14 300 0.0 0.0 0.00 0.00 0.00 68 1016.0
20260505181508 14 300 0.0 0.0 0.00 0.00 0.00 68 1016.0
20260505181006 -17 312 0.0 0.0 0.00 0.00 0.00 1015.9
20260505180523 14 340 0.0 0.0 0.00 0.00 0.00 68 1015.9
20260505180516 14 340 0.0 0.0 0.00 0.00 0.00 68 1015.9
20260505175505 14 340 0.0 0.0 0.00 0.00 0.00 68 1015.8
20260505175007 14 340 0.0 0.0 0.00 0.00 0.00 68 1015.8
20260505174506 14 340 0.0 0.0 0.00 0.00 0.00 68 1015.7
20260505174006 14 340 0.0 0.0 0.00 0.00 0.00 68 1015.7
20260505173506 14 340 0.0 0.0 0.00 0.00 0.00 68 1015.6
20260505173006 13 340 0.0 0.0 0.00 0.00 0.00 67 1015.6
20260505172506 14 340 0.0 0.0 0.00 0.00 0.00 68 1015.4
20260505172007 -17 340 0.0 0.0 0.00 0.00 0.00 1015.5
20260505171506 14 340 0.0 0.0 0.00 0.00 0.00 69 1015.5
20260505171236 14 340 0.0 0.0 0.00 0.00 0.00 69 1015.4
20260505170506 13 340 0.0 0.0 0.00 0.00 0.00 68 1015.4
20260505170008 13 0.0 0.0 0.00 0.00 0.00 68 1015.4
20260505165506 13 151 0.0 0.0 0.00 0.00 0.00 68 1015.4
20260505165006 13 151 0.0 0.0 0.00 0.00 0.00 69 1015.3
20260505164740 13 151 0.0 0.0 0.00 0.00 0.00 68 1015.4
20260505164001 13 151 0.0 0.0 0.00 0.00 0.00 70 1015.3
20260505163757 13 151 0.0 0.0 0.00 0.00 0.00 70 1015.2
20260505163002 13 151 0.0 0.0 0.00 0.00 0.00 70 1015.2
20260505162501 13 151 0.0 0.0 0.00 0.00 0.00 70 1015.3
20260505162246 13 151 0.0 0.0 0.00 0.00 0.00 70 1015.4
20260505161501 13 148 0.0 0.0 0.00 0.00 0.00 70 1015.3
20260505161252 13 148 0.0 0.0 0.00 0.00 0.00 70 1015.2
20260505160756 13 148 0.0 0.0 0.00 0.00 0.00 71 1015.2
20260505152936 12 148 0.0 1.6 0.00 0.00 0.00 72 1015.1
20260505152434 12 148 0.0 0.0 0.00 0.00 0.00 73 1015.2
20260505151935 12 147 0.0 0.0 0.00 0.00 0.00 74 1015.0
20260505151436 12 147 0.0 0.0 0.00 0.00 0.00 74 1015.1
20260505150935 12 147 0.0 0.0 0.00 0.00 0.00 74 1014.9
20260505150437 12 147 0.0 0.0 0.00 0.00 0.00 75 1015.1
20260505140438 11 305 0.0 0.0 0.00 0.00 0.00 80 1014.5
20260505124930 11 305 0.0 0.0 0.00 0.00 0.00 82 1014.3
20260505124713 11 305 0.0 0.0 0.00 0.00 0.00 82 1014.5
20260505123928 11 305 0.0 0.0 0.00 0.00 0.00 82 1014.4
20260505123427 11 305 0.0 0.0 0.00 0.00 0.00 82 1014.4
20260505122925 11 305 0.0 0.0 0.00 0.00 0.00 82 1014.5
20260505122424 11 305 0.0 0.0 0.00 0.00 0.00 82 1014.5
20260505122158 11 305 0.0 0.0 0.00 0.00 0.00 82 1014.5
20260505121423 11 305 0.0 0.0 0.00 0.00 0.00 82 1014.4
20260505120923 11 305 0.0 0.0 0.00 0.00 0.00 83 1014.5
20260505120422 11 305 0.0 0.0 0.00 0.00 0.00 82 1014.5
20260505115922 11 305 0.0 0.0 0.00 0.00 0.00 83 1014.6
20260505115422 11 305 0.0 0.0 0.00 0.00 0.00 82 1014.6
20260505114924 11 305 0.0 0.0 0.00 0.00 0.00 82 1014.6
20260505114424 11 305 0.0 0.0 0.00 0.00 0.00 82 1014.7
20260505114215 -17 305 0.0 0.0 0.00 0.00 0.00 1014.7
20260505113423 -17 305 0.0 0.0 0.00 0.00 0.00 1014.7
20260505112924 -17 305 0.0 0.0 0.00 0.00 0.00 1014.6
20260505112423 11 305 0.0 0.0 0.00 0.00 0.00 80 1014.6
20260505111923 11 305 0.0 0.0 0.00 0.00 0.00 80 1014.5
20260505111423 11 305 0.0 0.0 0.00 0.00 0.00 80 1014.6
20260505110924 11 305 0.0 0.0 0.00 0.00 0.00 80 1014.6
20260505110423 11 305 0.0 0.0 0.00 0.00 0.00 79 1014.4
20260505101923 11 305 0.0 0.0 0.00 0.00 0.00 79 1014.4
20260505101424 11 305 0.0 0.0 0.00 0.00 0.00 79 1014.5
20260505100922 11 305 0.0 0.0 0.00 0.00 0.00 79 1014.7
20260505100423 11 305 0.0 0.0 0.00 0.00 0.00 78 1014.6
20260505095921 11 305 0.0 0.0 0.00 0.00 0.00 78 1014.6
20260505095725 11 305 0.0 0.0 0.00 0.00 0.00 78 1014.6
20260505094921 -17 305 0.0 0.0 0.00 0.00 0.00 1014.6
20260505094421 12 305 0.0 0.0 0.00 0.00 0.00 74 1014.6
20260505093922 12 305 0.0 0.0 0.00 0.00 0.00 74 1014.7
20260505093407 12 305 0.0 0.0 0.00 0.00 0.00 74 1014.7
20260505092908 12 305 0.0 0.0 0.00 0.00 0.00 73 1014.8
20260505092408 12 305 0.0 0.0 0.00 0.00 0.00 73 1014.7
20260505091909 12 305 0.0 0.0 0.00 0.00 0.00 72 1014.7
20260505091408 12 0.0 0.0 0.00 0.00 0.00 72 1014.7
20260505091154 12 0.0 0.0 0.00 0.00 0.00 72 1014.9
20260505090405 12 0.0 0.0 0.00 0.00 0.00 72 1015.0
20260505090145 12 0.0 0.0 0.00 0.00 0.00 72 1015.0
20260505085356 12 305 0.0 0.0 0.00 0.00 0.00 72 1015.0
20260505084855 12 305 0.0 1.6 0.00 0.00 0.00 72 1015.1
20260505084354 12 338 0.0 1.6 0.00 0.00 0.00 73 1015.1
20260505084145 12 309 0.0 8.0 0.00 0.00 0.00 74 1015.2
20260505083355 12 0 1.6 8.0 0.00 0.00 0.00 74 1015.3
20260505082855 12 353 0.0 4.8 0.00 0.00 0.00 75 1015.3
20260505082356 12 312 0.0 4.8 0.00 0.00 0.00 75 1015.3
20260505081855 12 330 0.0 0.0 0.00 0.00 0.00 76 1015.2
20260505081355 12 351 0.0 0.0 0.00 0.00 0.00 76 1015.3
20260505080840 12 305 0.0 0.0 0.00 0.00 0.00 77 1015.3
20260505080632 -17 305 0.0 1.6 0.00 0.00 0.00 1015.4
20260505075831 -17 282 0.0 1.6 0.00 0.00 0.00 1015.5
20260505075329 12 303 0.0 0.0 0.00 0.00 0.00 77 1015.4
20260505075122 12 303 0.0 0.0 0.00 0.00 0.00 77 1015.4
20260505074330 12 303 0.0 0.0 0.00 0.00 0.00 76 1015.3
20260505073829 12 303 0.0 0.0 0.00 0.00 0.00 77 1015.4
20260505073330 12 0.0 0.0 0.00 0.00 0.00 77 1015.3
20260505072831 12 303 0.0 0.0 0.00 0.00 0.00 76 1015.3
20260505072602 12 303 0.0 0.0 0.00 0.00 0.00 76 1015.2
20260505071802 12 303 0.0 0.0 0.00 0.00 0.00 76 1015.2
20260505071302 12 0.0 0.0 0.00 0.00 0.00 76 1015.2
20260505070803 -17 0.0 0.0 0.00 0.00 0.00 1015.1
20260505070302 12 0.0 0.0 0.00 0.00 0.00 75 1014.9
20260505065803 12 303 0.0 0.0 0.00 0.00 0.00 75 1014.9
20260505065303 -17 303 0.0 0.0 0.00 0.00 0.00 1015.1
20260505064801 12 303 0.0 0.0 0.00 0.00 0.00 75 1015.0
20260505064303 12 299 0.0 0.0 0.00 0.00 0.00 75 1015.1
20260505063803 12 299 0.0 0.0 0.00 0.00 0.00 75 1015.0
20260505063542 12 299 0.0 0.0 0.00 0.00 0.00 74 1015.0
20260505062802 12 299 0.0 0.0 0.00 0.00 0.00 74 1014.9
20260505062304 12 299 0.0 0.0 0.00 0.00 0.00 73 1014.8
20260505061731 12 299 0.0 0.0 0.00 0.00 0.00 73 1014.7
20260505061230 12 299 0.0 0.0 0.00 0.00 0.00 73 1014.8
20260505060744 12 300 0.0 0.0 0.00 0.00 0.00 73 1014.7
20260505060740 12 299 0.0 0.0 0.00 0.00 0.00 73 1014.7
20260505055710 13 299 0.0 0.0 0.00 0.00 0.00 72 1014.8
20260505055444 13 299 0.0 0.0 0.00 0.00 0.00 72 1014.9
20260505054710 13 299 0.0 1.6 0.00 0.00 0.00 72 1015.0
20260505054210 13 299 0.0 1.6 0.00 0.00 0.00 71 1015.0
20260505053708 13 300 0.0 0.0 0.00 0.00 0.00 72 1015.0
20260505053210 13 334 0.0 0.0 0.00 0.00 0.00 72 1015.2
20260505052942 13 316 0.0 0.0 0.00 0.00 0.00 72 1015.3
20260505052208 13 303 0.0 0.0 0.00 0.00 0.00 72 1015.3
20260505051709 13 303 0.0 1.6 0.00 0.00 0.00 72 1015.4
20260505051209 13 309 0.0 1.6 0.00 0.00 0.00 72 1015.3
20260505050711 13 327 0.0 0.0 0.00 0.00 0.00 72 1015.3
20260505050211 13 0.0 0.0 0.00 0.00 0.00 71 1015.4
20260505041212 13 269 0.0 6.4 0.00 0.00 0.00 65 1014.9
20260505040709 14 330 1.6 6.4 0.00 0.00 0.00 64 1014.8
20260505040209 14 16 0.0 3.2 0.00 0.00 0.00 64 1014.8
20260505035710 14 298 0.0 3.2 0.00 0.00 0.00 64 1014.6
20260505035208 14 351 0.0 0.0 0.00 0.00 0.00 63 1014.6
20260505034713 14 314 0.0 0.0 0.00 0.00 0.00 63 1014.5
20260505034209 14 302 0.0 0.0 0.00 0.00 0.00 63 1014.3
20260505033709 14 285 0.0 0.0 0.00 0.00 0.00 63 1014.3
20260505033209 14 283 0.0 0.0 0.00 0.00 0.00 64 1014.2
20260505032709 14 286 0.0 0.0 0.00 0.00 0.00 64 1014.2
20260505032208 14 281 0.0 0.0 0.00 0.00 0.00 64 1014.1
20260505031708 14 327 0.0 0.0 0.00 0.00 0.00 64 1014.0
20260505031210 15 327 0.0 0.0 0.00 0.00 0.00 65 1014.1
20260505030710 15 327 0.0 0.0 0.00 0.00 0.00 65 1014.1
20260505030210 15 317 0.0 0.0 0.00 0.00 0.00 67 1014.1
20260505025710 15 317 0.0 0.0 0.00 0.00 0.00 67 1014.2
20260505025210 15 317 0.0 0.0 0.00 0.00 0.00 67 1014.1
20260505024712 15 317 0.0 0.0 0.00 0.00 0.00 67 1014.2
20260505024212 14 317 0.0 0.0 0.00 0.00 0.00 66 1014.0
20260505023711 14 353 0.0 1.6 0.00 0.00 0.00 67 1014.0
20260505023212 15 286 0.0 1.6 0.00 0.00 0.00 65 1014.0
20260505022711 15 0 0.0 8.0 0.00 0.00 0.00 62 1014.1
20260505022212 15 353 0.0 8.0 0.00 0.00 0.00 62 1013.9
20260505021712 15 324 0.0 3.2 0.00 0.00 0.00 62 1013.9
20260505021504 15 0 1.6 8.0 0.00 0.00 0.00 62 1014.1
20260505020711 15 289 1.6 8.0 0.00 0.00 0.00 62 1013.9
20260505020212 15 285 0.0 0.0 0.00 0.00 0.00 61 1013.8
20260505015712 16 320 0.0 0.0 0.00 0.00 0.00 60 1013.9
20260505015205 16 327 0.0 0.0 0.00 0.00 0.00 61 1013.9
20260505014658 16 10 0.0 0.0 0.00 0.00 0.00 61 1013.8
20260505014157 16 330 0.0 0.0 0.00 0.00 0.00 61 1013.9
20260505013953 16 330 0.0 0.0 0.00 0.00 0.00 60 1013.9
20260505013158 16 30 0.0 0.0 0.00 0.00 0.00 60 1013.9
20260505012657 16 326 0.0 0.0 0.00 0.00 0.00 60 1013.9
20260505012157 16 279 0.0 0.0 0.00 0.00 0.00 60 1014.0
20260505011950 16 283 0.0 0.0 0.00 0.00 0.00 60 1014.0
20260505011453 16 330 0.0 0.0 0.00 0.00 0.00 58 1014.1
20260505010657 17 24 0.0 0.0 0.00 0.00 0.00 59 1014.1
20260505010157 16 338 0.0 0.0 0.00 0.00 0.00 60 1014.1
20260505005657 16 0 0.0 0.0 0.00 0.00 0.00 60 1014.1
20260505005156 16 0 0.0 0.0 0.00 0.00 0.00 60 1014.2
20260505004657 16 341 0.0 0.0 0.00 0.00 0.00 60 1014.2
20260505004157 16 295 0.0 0.0 0.00 0.00 0.00 60 1014.2
20260505003657 16 331 0.0 0.0 0.00 0.00 0.00 60 1014.3
20260505003157 16 305 0.0 0.0 0.00 0.00 0.00 60 1014.1
20260505002656 16 355 0.0 0.0 0.00 0.00 0.00 60 1014.2
20260505002447 17 351 0.0 1.6 0.00 0.00 0.00 60 1014.2
20260505001656 17 0 0.0 1.6 0.00 0.00 0.00 59 1014.2
20260505001157 17 326 0.0 0.0 0.00 0.00 0.00 59 1014.2
20260505000657 17 333 0.0 1.6 0.00 0.00 0.00 61 1014.1
20260505000446 17 334 0.0 1.6 0.00 0.00 0.00 60 1014.1
20260504235735 17 302 0.0 6.4 0.00 0.00 0.00 63 1014.1
20260504235722 17 1 0.0 0.0 0.00 0.00 0.00 61 1014.1
20260504234656 16 350 0.0 6.4 0.00 0.00 0.00 64 1014.0
20260504234158 16 314 0.0 0.0 0.00 0.00 0.00 65 1014.2
20260504234007 15 0 0.0 0.0 0.00 0.00 0.00 65 1014.2
20260504233157 15 353 0.0 0.0 0.00 0.00 0.00 66 1014.2
20260504232657 15 20 0.0 0.0 0.00 0.00 0.00 66 1014.1
20260504232156 15 331 0.0 0.0 0.00 0.00 0.00 66 1014.1
20260504231658 15 324 0.0 8.0 0.00 0.00 0.00 66 1014.2
20260504231156 16 330 0.0 8.0 0.00 0.00 0.00 65 1014.1
20260504230658 16 323 1.6 4.8 0.00 0.00 0.00 61 1014.1
20260504230158 16 0 0.0 4.8 0.00 0.00 0.00 59 1014.2
20260504225946 16 319 0.0 0.0 0.00 0.00 0.00 59 1014.2
20260504225158 16 319 0.0 0.0 0.00 0.00 0.00 59 1014.2
20260504224658 16 321 0.0 0.0 0.00 0.00 0.00 59 1014.0
20260504224158 17 309 0.0 0.0 0.00 0.00 0.00 59 1014.0
20260504223658 17 0.0 0.0 0.00 0.00 0.00 58 1014.1
20260504223157 17 355 0.0 0.0 0.00 0.00 0.00 59 1014.2
20260504222658 17 355 0.0 0.0 0.00 0.00 0.00 59 1014.3
20260504222157 17 17 0.0 0.0 0.00 0.00 0.00 59 1014.3
20260504221656 17 306 0.0 0.0 0.00 0.00 0.00 59 1014.2
20260504221158 17 310 0.0 0.0 0.00 0.00 0.00 58 1014.2
20260504220656 17 303 0.0 0.0 0.00 0.00 0.00 59 1014.3
20260504220157 17 302 0.0 0.0 0.00 0.00 0.00 59 1014.3
20260504215658 17 290 0.0 0.0 0.00 0.00 0.00 58 1014.5
20260504215504 17 0 0.0 0.0 0.00 0.00 0.00 58 1014.4
20260504214655 17 331 0.0 0.0 0.00 0.00 0.00 57 1014.5
20260504214155 18 350 0.0 0.0 0.00 0.00 0.00 58 1014.5
20260504213655 18 0 0.0 0.0 0.00 0.00 0.00 58 1014.6
20260504213153 17 347 0.0 0.0 0.00 0.00 0.00 57 1014.7
20260504212948 18 347 0.0 0.0 0.00 0.00 0.00 57 1014.6
20260504212154 18 347 0.0 0.0 0.00 0.00 0.00 57 1014.7
20260504211654 18 319 0.0 0.0 0.00 0.00 0.00 58 1014.7
20260504211154 16 319 0.0 0.0 0.00 0.00 0.00 62 1014.7
20260504210939 16 295 0.0 0.0 0.00 0.00 0.00 61 1014.7
20260504210144 16 338 0.0 0.0 0.00 0.00 0.00 62 1014.8
20260504205641 16 350 0.0 0.0 0.00 0.00 0.00 61 1014.8
20260504205140 16 293 0.0 0.0 0.00 0.00 0.00 61 1014.9
20260504204640 16 293 0.0 0.0 0.00 0.00 0.00 61 1014.9
20260504204139 16 347 0.0 0.0 0.00 0.00 0.00 60 1014.8